Weather History for KICR - October, 2012

Change the Weather History Date:

Sunday, October 28, 2012

  Actual Average Record
Temperature  
Mean Temperature 37 °F 46 °F  
Max Temperature 54 °F 57 °F 70 °F (2007)
Min Temperature 20 °F 35 °F 20 °F (2012)
Degree Days  
Heating Degree Days 28 20  
Month to date heating degree days 451 396  
Since 1 July heating degree days 509 538  
Cooling Degree Days 0 0  
Month to date cooling degree days 2 9  
Year to date cooling degree days 1470 915  
Moisture  
Dew Point 29 °F    
Average Humidity 69    
Maximum Humidity 92    
Minimum Humidity 45    
Precipitation  
Precipitation 0.00 in 0.04 in 0.02 in (2013)
Month to date precipitation 0.04 1.55  
Year to date precipitation 10.15 20.54  
Sea Level Pressure  
Sea Level Pressure 30.13 in    
Wind  
Wind Speed 9 mph (SE)    
Max Wind Speed 21 mph    
Max Gust Speed 28 mph    
Visibility 8 miles    
Events      
T = Trace of Precipitation, MM = Missing Value Source: NWS Daily Summary

Daily Weather History Graph

Daily Weather History Graph

Search for Another Location

Airport or City:

Trip Planner

Search our weather history database for the weather conditions in past years. The results will help you decide how hot, cold, wet, or windy it might be!

Date:

Astronomy

Oct. 28, 2012 Rise Set
Actual Time 8:10 AM CDT 6:35 PM CDT
Civil Twilight 7:40 AM CDT 7:04 PM CDT
Nautical Twilight 7:07 AM CDT 7:38 PM CDT
Astronomical Twilight 6:33 AM CDT 8:11 PM CDT
Moon 5:54 PM CDT (10/28) 7:04 AM CDT (10/28)
Length of Visible Light 11h 24m
Length of Day
10h 25m
Waxing Gibbous, 99% of the Moon is Illuminated
Oct 28
Waxing Gibbous
Oct 29
Full
Nov 6
Last Quarter
Nov 13
New
Nov 20
First Quarter

Hourly Weather History & Observations

Time (CDT) Temp. Windchill Dew Point Humidity Pressure Visibility Wind Dir Wind Speed Gust Speed Precip Events Conditions
12:53 AM 27.0 °F - 24.1 °F 89% 30.23 in 9.0 mi Calm Calm - N/A   Clear
1:53 AM 28.0 °F 22.8 °F 25.0 °F 88% 30.22 in 8.0 mi SW 4.6 mph - N/A   Clear
2:53 AM 26.1 °F 20.5 °F 23.0 °F 88% 30.22 in 8.0 mi South 4.6 mph - N/A   Clear
3:53 AM 28.9 °F - 26.1 °F 89% 30.20 in 9.0 mi Calm Calm - N/A   Clear
4:53 AM 28.9 °F 22.8 °F 26.1 °F 89% 30.19 in 8.0 mi WSW 5.8 mph - N/A   Clear
5:53 AM 24.1 °F - 21.9 °F 91% 30.21 in 6.0 mi Calm Calm - N/A   Clear
6:53 AM 21.9 °F - 19.9 °F 92% 30.24 in 6.0 mi Calm Calm - N/A   Clear
7:53 AM 21.9 °F - 19.9 °F 92% 30.23 in 6.0 mi Calm Calm - N/A   Partly Cloudy
8:53 AM 24.1 °F 17.0 °F 21.9 °F 91% 30.22 in 5.0 mi East 5.8 mph - N/A   Clear
9:18 AM 26.6 °F 19.1 °F 24.8 °F 93% 30.15 in 4.0 mi SE 6.9 mph - N/A   Scattered Clouds
9:29 AM 26.6 °F 22.6 °F 26.6 °F 100% 30.15 in 4.0 mi SSE 3.5 mph - N/A   Mostly Cloudy
9:53 AM 28.0 °F 20.8 °F 26.1 °F 92% 30.21 in 3.0 mi ESE 6.9 mph - N/A   Mostly Cloudy
10:32 AM 30.2 °F 22.6 °F 28.4 °F 93% 30.13 in 2.5 mi East 8.1 mph - N/A   Mostly Cloudy
10:41 AM 30.2 °F 24.3 °F 28.4 °F 93% 30.13 in 4.0 mi ESE 5.8 mph - N/A   Mostly Cloudy
10:49 AM 32.0 °F 26.4 °F 30.2 °F 93% 30.13 in 4.0 mi SE 5.8 mph - N/A   Scattered Clouds
10:53 AM 32.0 °F 26.4 °F 30.0 °F 92% 30.20 in 5.0 mi ESE 5.8 mph - N/A   Partly Cloudy
12:53 PM 46.0 °F 39.9 °F 36.0 °F 68% 30.14 in 10.0 mi ESE 13.8 mph - N/A   Clear
1:53 PM 48.9 °F - 33.1 °F 54% 30.10 in 10.0 mi SE 15.0 mph - N/A   Clear
2:53 PM 51.1 °F - 33.1 °F 50% 30.06 in 10.0 mi SE 17.3 mph - N/A   Clear
3:53 PM 54.0 °F - 32.0 °F 43% 30.04 in 10.0 mi SE 18.4 mph - N/A   Clear
4:53 PM 53.1 °F - 32.0 °F 45% 30.03 in 10.0 mi SE 15.0 mph - N/A   Scattered Clouds
5:53 PM 52.0 °F - 33.1 °F 49% 30.04 in 10.0 mi SE 8.1 mph - N/A   Scattered Clouds
6:53 PM 48.0 °F - 35.1 °F 61% 30.04 in 10.0 mi SE 6.9 mph - N/A   Mostly Cloudy
7:53 PM 48.0 °F - 34.0 °F 58% 30.03 in 10.0 mi SE 10.4 mph - N/A   Scattered Clouds
8:53 PM 48.0 °F - 32.0 °F 54% 30.03 in 10.0 mi SE 11.5 mph - N/A   Mostly Cloudy
9:53 PM 48.0 °F - 32.0 °F 54% 30.03 in 10.0 mi SSE 18.4 mph 24.2 mph N/A   Partly Cloudy
10:53 PM 45.0 °F 37.9 °F 32.0 °F 60% 30.03 in 10.0 mi South 16.1 mph - N/A   Partly Cloudy
11:53 PM 46.0 °F 38.5 °F 32.0 °F 58% 30.02 in 10.0 mi South 19.6 mph - N/A   Mostly Cloudy